Location: Borovka
(49.7741°N, 14.5280°E)
Time: 09:48:57
(UTC+00:00)

LilacSat-2 - Pass Details

Date: 16 March 2026
Orbit: 412 x 424 km, 97.5° (Epoch: 20 April)

Event Time Altitude Azimuth Distance (km) Brightness Sun altitude
Rises 18:14:07 0° 173° (S) 2,390 ? -11.4°
Reaches altitude 10° 18:16:08 10° 177° (S) 1,529 ? -11.7°
Maximum altitude 18:19:22 60° 258° (WSW) 502 ? -12.2°
Drops below altitude 10° 18:22:38 10° 340° (NNW) 1,544 ? -12.7°
Sets 18:24:41 0° 344° (NNW) 2,415 ? -13.0°
